Powrót do katalogu

GEESAT 2-01

AktywnyNaukaLEO
NORAD 58905·PAYLOAD·🇨🇳 China

Wystrzelony Feb 2, 2024 z Xichang Satellite Launch Center

Loading…

Następne Przeloty (najbliższe 24 godziny)

TLE

ŚwieżeSource: Space-Track

Epoka: Sep 14, 2026, 14:29 UTC

1 58905U 24023A   26257.60395759  .00000932  00000-0  13961-3 0  9991
2 58905  49.9953 299.8663 0004907   4.2580 355.8399 14.83403288142189

Śledź GEESAT 2-01 w czasie rzeczywistym z AllMySat

Download on the App Store